Time,TemperatureF,DewpointF,PressureIn,WindDirection,WindDirectionDegrees,WindSpeedMPH,WindSpeedGustMPH,Humidity,HourlyPrecipIn,Conditions,Clouds,dailyrainin,SoftwareType,DateUTC
2013-01-17 00:02:00,33.0,30.0,30.09,WSW,255,3.0,6.0,90,0.00,,,0.00,,2013-01-17 06:02:00,
2013-01-17 00:12:00,33.0,30.0,30.09,WSW,255,3.0,6.0,90,0.00,,,0.00,,2013-01-17 06:12:00,
2013-01-17 00:22:00,33.0,30.0,30.10,WNW,303,0.0,7.0,90,0.00,,,0.00,,2013-01-17 06:22:00,
2013-01-17 00:32:00,32.0,29.0,30.11,West,269,2.0,5.0,90,0.00,,,0.00,,2013-01-17 06:32:00,
2013-01-17 00:42:00,32.0,29.0,30.11,West,269,2.0,5.0,90,0.00,,,0.00,,2013-01-17 06:42:00,
2013-01-17 00:52:00,32.0,30.0,30.12,West,279,0.0,3.0,91,0.00,,,0.00,,2013-01-17 06:52:00,
2013-01-17 01:02:00,32.0,30.0,30.13,West,271,1.0,5.0,92,0.00,,,0.00,,2013-01-17 07:02:00,
2013-01-17 01:12:00,32.0,30.0,30.13,West,271,1.0,5.0,92,0.00,,,0.00,,2013-01-17 07:12:00,
2013-01-17 01:22:00,32.0,30.0,30.13,West,260,0.0,3.0,92,0.00,,,0.00,,2013-01-17 07:22:00,
2013-01-17 01:32:00,32.0,30.0,30.14,NW,314,1.0,4.0,92,0.00,,,0.00,,2013-01-17 07:32:00,
2013-01-17 01:42:00,32.0,30.0,30.14,NW,314,1.0,4.0,92,0.00,,,0.00,,2013-01-17 07:42:00,
2013-01-17 01:52:00,31.0,29.0,30.15,WNW,295,0.0,2.0,92,0.00,,,0.00,,2013-01-17 07:52:00,
2013-01-17 02:02:00,31.0,29.0,30.16,WNW,295,0.0,1.0,93,0.00,,,0.00,,2013-01-17 08:02:00,
2013-01-17 02:12:00,31.0,29.0,30.16,WNW,295,0.0,1.0,93,0.00,,,0.00,,2013-01-17 08:12:00,
2013-01-17 02:22:00,31.0,29.0,30.16,WNW,303,0.0,3.0,93,0.00,,,0.00,,2013-01-17 08:22:00,
2013-01-17 02:32:00,31.0,29.0,30.17,NW,310,1.0,2.0,93,0.00,,,0.00,,2013-01-17 08:32:00,
2013-01-17 02:43:00,31.0,29.0,30.17,NW,310,1.0,2.0,93,0.00,,,0.00,,2013-01-17 08:43:00,
2013-01-17 02:53:00,31.0,29.0,30.17,East,83,0.0,3.0,93,0.00,,,0.00,,2013-01-17 08:53:00,
2013-01-17 03:02:00,31.0,29.0,30.18,NNE,31,1.0,4.0,93,0.00,,,0.00,,2013-01-17 09:02:00,
2013-01-17 03:12:00,31.0,29.0,30.18,NNE,31,1.0,4.0,93,0.00,,,0.00,,2013-01-17 09:12:00,
2013-01-17 03:22:00,31.0,27.0,30.19,North,5,3.0,8.0,86,0.00,,,0.00,,2013-01-17 09:22:00,
2013-01-17 03:32:00,30.0,25.0,30.20,North,5,2.0,9.0,81,0.00,,,0.00,,2013-01-17 09:32:00,
2013-01-17 03:42:00,30.0,25.0,30.20,North,5,2.0,9.0,81,0.00,,,0.00,,2013-01-17 09:42:00,
2013-01-17 03:52:00,30.0,25.0,30.20,North,5,3.0,6.0,82,0.00,,,0.00,,2013-01-17 09:52:00,
2013-01-17 04:02:00,29.0,24.0,30.21,NNW,348,3.0,8.0,80,0.00,,,0.00,,2013-01-17 10:02:00,
2013-01-17 04:12:00,29.0,24.0,30.21,NNW,348,3.0,8.0,80,0.00,,,0.00,,2013-01-17 10:12:00,
2013-01-17 04:22:00,28.0,23.0,30.21,North,360,2.0,6.0,80,0.00,,,0.00,,2013-01-17 10:22:00,
2013-01-17 04:32:00,27.0,22.0,30.22,North,360,2.0,5.0,81,0.00,,,0.00,,2013-01-17 10:32:00,
2013-01-17 04:42:00,27.0,22.0,30.22,North,360,2.0,5.0,81,0.00,,,0.00,,2013-01-17 10:42:00,
2013-01-17 04:53:00,26.0,21.0,30.22,North,351,2.0,4.0,82,0.00,,,0.00,,2013-01-17 10:53:00,
2013-01-17 05:02:00,26.0,22.0,30.23,NNW,343,1.0,4.0,83,0.00,,,0.00,,2013-01-17 11:02:00,
2013-01-17 05:12:00,26.0,22.0,30.23,NNW,343,1.0,4.0,83,0.00,,,0.00,,2013-01-17 11:12:00,
2013-01-17 05:22:00,25.0,21.0,30.24,NNW,338,2.0,6.0,83,0.00,,,0.00,,2013-01-17 11:22:00,
2013-01-17 05:33:00,25.0,21.0,30.25,NNW,345,2.0,6.0,84,0.00,,,0.00,,2013-01-17 11:33:00,
2013-01-17 05:42:00,25.0,21.0,30.25,NNW,345,2.0,6.0,84,0.00,,,0.00,,2013-01-17 11:42:00,
2013-01-17 05:53:00,24.0,20.0,30.26,NNW,346,1.0,5.0,85,0.00,,,0.00,,2013-01-17 11:53:00,
2013-01-17 06:02:00,24.0,20.0,30.27,North,5,2.0,4.0,86,0.00,,,0.00,,2013-01-17 12:02:00,
2013-01-17 06:12:00,24.0,20.0,30.27,North,5,2.0,4.0,86,0.00,,,0.00,,2013-01-17 12:12:00,
2013-01-17 06:22:00,23.0,19.0,30.27,NNW,331,2.0,4.0,86,0.00,,,0.00,,2013-01-17 12:22:00,
2013-01-17 08:23:00,20.0,14.0,30.32,NNW,331,1.0,5.0,77,0.00,,,0.00,,2013-01-17 14:23:00,
2013-01-17 08:33:00,21.0,14.0,30.33,NNW,339,2.0,5.0,75,0.00,,,0.00,,2013-01-17 14:33:00,
2013-01-17 08:42:00,21.0,14.0,30.33,NNW,339,2.0,5.0,75,0.00,,,0.00,,2013-01-17 14:42:00,
2013-01-17 08:53:00,22.0,15.0,30.33,NNW,333,2.0,5.0,74,0.00,,,0.00,,2013-01-17 14:53:00,
2013-01-17 09:03:00,23.0,16.0,30.34,NNW,328,3.0,5.0,73,0.00,,,0.00,,2013-01-17 15:03:00,
2013-01-17 09:12:00,23.0,16.0,30.34,NNW,328,3.0,5.0,73,0.00,,,0.00,,2013-01-17 15:12:00,
2013-01-17 09:22:00,23.0,15.0,30.34,NE,50,2.0,8.0,71,0.00,,,0.00,,2013-01-17 15:22:00,
2013-01-17 09:33:00,24.0,15.0,30.35,NW,323,4.0,7.0,69,0.00,,,0.00,,2013-01-17 15:33:00,
2013-01-17 09:43:00,24.0,15.0,30.35,NW,323,4.0,7.0,69,0.00,,,0.00,,2013-01-17 15:43:00,
2013-01-17 09:53:00,24.0,15.0,30.35,North,355,3.0,7.0,67,0.00,,,0.00,,2013-01-17 15:53:00,
2013-01-17 10:02:00,24.0,15.0,30.35,NW,308,3.0,7.0,67,0.00,,,0.00,,2013-01-17 16:02:00,
2013-01-17 10:12:00,24.0,15.0,30.35,NW,308,3.0,7.0,67,0.00,,,0.00,,2013-01-17 16:12:00,
2013-01-17 10:23:00,24.0,14.0,30.35,NW,317,4.0,9.0,66,0.00,,,0.00,,2013-01-17 16:23:00,
2013-01-17 10:33:00,25.0,15.0,30.36,NNW,330,3.0,8.0,66,0.00,,,0.00,,2013-01-17 16:33:00,
2013-01-17 10:43:00,25.0,15.0,30.36,NNW,330,3.0,8.0,66,0.00,,,0.00,,2013-01-17 16:43:00,
2013-01-17 10:53:00,25.0,15.0,30.37,NNW,346,5.0,10.0,65,0.00,,,0.00,,2013-01-17 16:53:00,
2013-01-17 11:03:00,25.0,15.0,30.37,North,360,4.0,10.0,64,0.00,,,0.00,,2013-01-17 17:03:00,
2013-01-17 11:12:00,25.0,15.0,30.37,North,360,4.0,10.0,64,0.00,,,0.00,,2013-01-17 17:12:00,
2013-01-17 11:22:00,25.0,15.0,30.37,NW,322,3.0,10.0,64,0.00,,,0.00,,2013-01-17 17:22:00,
2013-01-17 11:33:00,26.0,14.0,30.37,NW,319,4.0,9.0,61,0.00,,,0.00,,2013-01-17 17:33:00,
2013-01-17 11:43:00,26.0,14.0,30.37,NW,319,4.0,9.0,61,0.00,,,0.00,,2013-01-17 17:43:00,
2013-01-17 11:53:00,26.0,14.0,30.37,NNW,346,6.0,10.0,61,0.00,,,0.00,,2013-01-17 17:53:00,
2013-01-17 12:03:00,26.0,16.0,30.37,NW,319,4.0,10.0,64,0.00,,,0.00,,2013-01-17 18:03:00,
2013-01-17 12:12:00,26.0,16.0,30.37,NW,319,4.0,10.0,64,0.00,,,0.00,,2013-01-17 18:12:00,
2013-01-17 12:22:00,27.0,16.0,30.37,NNW,329,4.0,11.0,62,0.00,,,0.00,,2013-01-17 18:22:00,
2013-01-17 12:33:00,27.0,17.0,30.37,NW,313,3.0,10.0,66,0.00,,,0.00,,2013-01-17 18:33:00,
2013-01-17 12:43:00,27.0,17.0,30.37,NW,313,3.0,10.0,66,0.00,,,0.00,,2013-01-17 18:43:00,
2013-01-17 12:53:00,27.0,15.0,30.37,NNW,333,4.0,11.0,60,0.00,,,0.00,,2013-01-17 18:53:00,
2013-01-17 13:03:00,27.0,14.0,30.36,NW,308,3.0,9.0,58,0.00,,,0.00,,2013-01-17 19:03:00,
2013-01-17 13:12:00,27.0,14.0,30.36,NW,308,3.0,9.0,58,0.00,,,0.00,,2013-01-17 19:12:00,
2013-01-17 13:23:00,27.0,14.0,30.36,NW,304,4.0,11.0,58,0.00,,,0.00,,2013-01-17 19:23:00,
2013-01-17 13:33:00,27.0,15.0,30.36,NNW,336,4.0,8.0,59,0.00,,,0.00,,2013-01-17 19:33:00,
2013-01-17 13:43:00,27.0,15.0,30.36,NNW,336,4.0,8.0,59,0.00,,,0.00,,2013-01-17 19:43:00,
2013-01-17 13:53:00,27.0,15.0,30.37,NW,325,4.0,9.0,59,0.00,,,0.00,,2013-01-17 19:53:00,
2013-01-17 14:03:00,27.0,15.0,30.36,NE,50,5.0,10.0,61,0.00,,,0.00,,2013-01-17 20:03:00,
2013-01-17 14:12:00,27.0,15.0,30.36,NE,50,5.0,10.0,61,0.00,,,0.00,,2013-01-17 20:12:00,
2013-01-17 14:23:00,27.0,16.0,30.37,NNW,346,5.0,10.0,62,0.00,,,0.00,,2013-01-17 20:23:00,
2013-01-17 14:33:00,27.0,15.0,30.37,NW,316,6.0,13.0,59,0.00,,,0.00,,2013-01-17 20:33:00,
2013-01-17 14:43:00,27.0,15.0,30.37,NW,316,6.0,13.0,59,0.00,,,0.00,,2013-01-17 20:43:00,
2013-01-17 14:54:00,27.0,15.0,30.37,NW,316,6.0,13.0,59,0.00,,,0.00,,2013-01-17 20:54:00,
2013-01-17 15:03:00,27.0,15.0,30.37,NNW,340,2.0,7.0,61,0.00,,,0.00,,2013-01-17 21:03:00,
2013-01-17 15:13:00,27.0,15.0,30.37,NNW,340,2.0,7.0,61,0.00,,,0.00,,2013-01-17 21:13:00,
2013-01-17 15:23:00,27.0,15.0,30.36,NNW,343,3.0,7.0,60,0.00,,,0.00,,2013-01-17 21:23:00,
2013-01-17 15:33:00,27.0,15.0,30.37,NW,326,2.0,7.0,60,0.00,,,0.00,,2013-01-17 21:33:00,
2013-01-17 15:43:00,27.0,15.0,30.37,NW,326,2.0,7.0,60,0.00,,,0.00,,2013-01-17 21:43:00,
2013-01-17 15:53:00,27.0,15.0,30.37,NW,319,2.0,5.0,59,0.00,,,0.00,,2013-01-17 21:53:00,
2013-01-17 16:03:00,27.0,15.0,30.37,West,275,2.0,6.0,60,0.00,,,0.00,,2013-01-17 22:03:00,
2013-01-17 16:12:00,27.0,15.0,30.37,West,275,2.0,6.0,60,0.00,,,0.00,,2013-01-17 22:12:00,
2013-01-17 16:23:00,26.0,15.0,30.37,SSE,153,1.0,6.0,63,0.00,,,0.00,,2013-01-17 22:23:00,
2013-01-17 16:33:00,26.0,14.0,30.37,WNW,283,2.0,5.0,61,0.00,,,0.00,,2013-01-17 22:33:00,
2013-01-17 16:43:00,26.0,14.0,30.37,WNW,283,2.0,5.0,61,0.00,,,0.00,,2013-01-17 22:43:00,
2013-01-17 16:53:00,25.0,14.0,30.38,NW,304,2.0,4.0,63,0.00,,,0.00,,2013-01-17 22:53:00,
2013-01-17 17:03:00,25.0,14.0,30.38,NW,304,2.0,4.0,63,0.00,,,0.00,,2013-01-17 23:03:00,
2013-01-17 17:12:00,25.0,14.0,30.38,NW,304,2.0,4.0,63,0.00,,,0.00,,2013-01-17 23:12:00,
2013-01-17 17:22:00,24.0,16.0,30.39,SSE,157,0.0,2.0,70,0.00,,,0.00,,2013-01-17 23:22:00,
2013-01-17 17:33:00,24.0,17.0,30.39,SSE,163,0.0,2.0,73,0.00,,,0.00,,2013-01-17 23:33:00,
2013-01-17 17:43:00,24.0,17.0,30.39,SSE,163,0.0,2.0,73,0.00,,,0.00,,2013-01-17 23:43:00,
2013-01-17 17:53:00,24.0,17.0,30.39,SSE,163,0.0,2.0,73,0.00,,,0.00,,2013-01-17 23:53:00,
2013-01-17 18:02:00,23.0,15.0,30.40,West,269,2.0,4.0,72,0.00,,,0.00,,2013-01-18 00:02:00,
2013-01-17 18:12:00,23.0,15.0,30.40,West,269,2.0,4.0,72,0.00,,,0.00,,2013-01-18 00:12:00,
2013-01-17 18:23:00,23.0,15.0,30.40,West,269,0.0,3.0,72,0.00,,,0.00,,2013-01-18 00:23:00,
2013-01-17 18:32:00,23.0,15.0,30.40,West,269,0.0,3.0,72,0.00,,,0.00,,2013-01-18 00:32:00,
2013-01-17 18:42:00,22.0,15.0,30.40,West,269,0.0,2.0,74,0.00,,,0.00,,2013-01-18 00:42:00,
2013-01-17 18:53:00,22.0,16.0,30.41,West,269,0.0,2.0,76,0.00,,,0.00,,2013-01-18 00:53:00,
2013-01-17 19:02:00,22.0,16.0,30.41,West,269,0.0,2.0,77,0.00,,,0.00,,2013-01-18 01:02:00,
2013-01-17 19:12:00,22.0,16.0,30.41,West,269,0.0,2.0,77,0.00,,,0.00,,2013-01-18 01:12:00,
2013-01-17 19:22:00,22.0,16.0,30.40,West,269,0.0,1.0,77,0.00,,,0.00,,2013-01-18 01:22:00,
2013-01-17 19:33:00,22.0,16.0,30.41,West,261,0.0,3.0,77,0.00,,,0.00,,2013-01-18 01:33:00,
2013-01-17 19:43:00,22.0,16.0,30.41,West,261,0.0,3.0,77,0.00,,,0.00,,2013-01-18 01:43:00,
2013-01-17 19:53:00,22.0,16.0,30.41,West,261,0.0,3.0,77,0.00,,,0.00,,2013-01-18 01:53:00,
2013-01-17 20:02:00,23.0,16.0,30.41,West,263,3.0,5.0,73,0.00,,,0.00,,2013-01-18 02:02:00,
2013-01-17 20:12:00,23.0,16.0,30.41,West,263,3.0,5.0,73,0.00,,,0.00,,2013-01-18 02:12:00,
2013-01-17 20:22:00,23.0,16.0,30.42,West,266,3.0,6.0,73,0.00,,,0.00,,2013-01-18 02:22:00,
2013-01-17 20:32:00,23.0,16.0,30.42,West,263,3.0,6.0,74,0.00,,,0.00,,2013-01-18 02:32:00,
2013-01-17 20:42:00,23.0,16.0,30.42,West,263,3.0,6.0,74,0.00,,,0.00,,2013-01-18 02:42:00,
2013-01-17 20:53:00,23.0,16.0,30.42,West,281,2.0,6.0,74,0.00,,,0.00,,2013-01-18 02:53:00,
2013-01-17 21:02:00,22.0,15.0,30.42,West,269,3.0,6.0,75,0.00,,,0.00,,2013-01-18 03:02:00,
2013-01-17 21:12:00,22.0,15.0,30.42,West,269,3.0,6.0,75,0.00,,,0.00,,2013-01-18 03:12:00,
2013-01-17 21:23:00,23.0,16.0,30.42,West,281,3.0,7.0,75,0.00,,,0.00,,2013-01-18 03:23:00,
2013-01-17 21:33:00,22.0,16.0,30.43,West,270,3.0,6.0,76,0.00,,,0.00,,2013-01-18 03:33:00,
2013-01-17 21:42:00,22.0,16.0,30.43,West,270,3.0,6.0,76,0.00,,,0.00,,2013-01-18 03:42:00,
2013-01-17 21:53:00,22.0,16.0,30.43,WNW,284,2.0,6.0,76,0.00,,,0.00,,2013-01-18 03:53:00,
2013-01-17 22:02:00,21.0,15.0,30.43,West,263,1.0,7.0,78,0.00,,,0.00,,2013-01-18 04:02:00,
2013-01-17 22:12:00,21.0,15.0,30.43,West,263,1.0,7.0,78,0.00,,,0.00,,2013-01-18 04:12:00,
2013-01-17 22:22:00,21.0,16.0,30.42,West,265,2.0,5.0,80,0.00,,,0.00,,2013-01-18 04:22:00,
2013-01-17 22:32:00,21.0,16.0,30.43,WSW,257,2.0,5.0,80,0.00,,,0.00,,2013-01-18 04:32:00,
2013-01-17 22:42:00,21.0,16.0,30.43,WSW,257,2.0,5.0,80,0.00,,,0.00,,2013-01-18 04:42:00,
2013-01-17 22:53:00,21.0,16.0,30.42,WSW,255,3.0,6.0,81,0.00,,,0.00,,2013-01-18 04:53:00,
2013-01-17 23:03:00,21.0,16.0,30.42,West,268,2.0,6.0,81,0.00,,,0.00,,2013-01-18 05:03:00,
2013-01-17 23:12:00,21.0,16.0,30.42,West,268,2.0,6.0,81,0.00,,,0.00,,2013-01-18 05:12:00,
2013-01-17 23:22:00,21.0,16.0,30.43,West,273,1.0,5.0,81,0.00,,,0.00,,2013-01-18 05:22:00,
2013-01-17 23:33:00,20.0,15.0,30.43,WNW,288,1.0,5.0,82,0.00,,,0.00,,2013-01-18 05:33:00,
2013-01-17 23:42:00,20.0,15.0,30.43,WNW,288,1.0,5.0,82,0.00,,,0.00,,2013-01-18 05:42:00,
2013-01-17 23:53:00,20.0,15.0,30.43,West,274,0.0,4.0,82,0.00,,,0.00,,2013-01-18 05:53:00,